Weather History for Poplar Bluff, MO

Change the Weather History Date:

Wednesday, March 20, 2013

  Actual Average Record
Temperature  
Mean Temperature 42 °F -  
Max Temperature 51 °F 61 °F 84 °F (1948)
Min Temperature 30 °F 38 °F 16 °F (1965)
Degree Days  
Heating Degree Days 23    
Moisture  
Dew Point 22 °F    
Average Humidity 52    
Maximum Humidity 76    
Minimum Humidity 21    
Precipitation  
Precipitation 0.00 in - - ()
Sea Level Pressure  
Sea Level Pressure 30.19 in    
Wind  
Wind Speed 9 mph (NW)    
Max Wind Speed 24 mph    
Max Gust Speed 32 mph    
Visibility 10 miles    
Events      
Averages and records for this station are not official NWS values.
T = Trace of Precipitation, MM = Missing Value Source: NWS Daily Summary

Daily Weather History Graph

Daily Weather History Graph

Search for Another Location

Airport:

Trip Planner

Search our weather history database for the weather conditions in past years. The results will help you decide how hot, cold, wet, or windy it might be!

Date:

Astronomy

Mar. 20, 2013 Rise Set
Actual Time 7:04 AM CDT 7:13 PM CDT
Civil Twilight 6:38 AM CDT 7:39 PM CDT
Nautical Twilight 6:08 AM CDT 8:09 PM CDT
Astronomical Twilight 5:37 AM CDT 8:40 PM CDT
Moon 12:56 PM CDT (3/20) 2:36 AM CDT (3/20)
Length of Visible Light 13h 00m
Length of Day
12h 08m
First Quarter, 59% of the Moon is Illuminated
Mar 20
First Quarter
Mar 27
Full
Apr 2
Last Quarter
Apr 10
New
Apr 18
First Quarter

Hourly Weather History & Observations

Time (CDT) Temp. Windchill Dew Point Humidity Pressure Visibility Wind Dir Wind Speed Gust Speed Precip Events Conditions
12:53 AM 39.9 °F 36.7 °F 27.0 °F 60% 30.22 in 10.0 mi WSW 4.6 mph - N/A   Clear
1:53 AM 39.0 °F 34.8 °F 27.0 °F 62% 30.23 in 10.0 mi WNW 5.8 mph - N/A   Clear
2:53 AM 39.0 °F 35.7 °F 26.1 °F 60% 30.22 in 10.0 mi WNW 4.6 mph - N/A   Clear
3:53 AM 37.9 °F 34.4 °F 26.1 °F 62% 30.20 in 10.0 mi WNW 4.6 mph - N/A   Clear
4:53 AM 36.0 °F 32.1 °F 27.0 °F 70% 30.20 in 10.0 mi WNW 4.6 mph - N/A   Clear
5:53 AM 36.0 °F 30.3 °F 27.0 °F 70% 30.22 in 10.0 mi WNW 6.9 mph - N/A   Clear
6:53 AM 35.1 °F 30.1 °F 28.0 °F 76% 30.23 in 10.0 mi WNW 5.8 mph - N/A   Clear
7:53 AM 37.0 °F 33.3 °F 28.9 °F 73% 30.24 in 10.0 mi WNW 4.6 mph - N/A   Clear
8:45 AM 37.4 °F 29.8 °F 30.2 °F 75% 30.25 in 10.0 mi NW 11.5 mph - N/A   Mostly Cloudy
8:53 AM 37.9 °F 30.5 °F 30.9 °F 76% 30.27 in 10.0 mi NW 11.5 mph 19.6 mph N/A   Overcast
9:37 AM 41.0 °F 34.7 °F 32.0 °F 70% 30.26 in 10.0 mi NW 10.4 mph - N/A   Overcast
9:53 AM 41.0 °F 33.1 °F 32.0 °F 70% 30.27 in 10.0 mi NNW 15.0 mph - N/A   Overcast
10:53 AM 43.0 °F 34.8 °F 30.0 °F 60% 30.27 in 10.0 mi NW 18.4 mph 27.6 mph N/A   Mostly Cloudy
11:53 AM 46.9 °F - 26.1 °F 44% 30.24 in 10.0 mi NW 21.9 mph 28.8 mph N/A   Scattered Clouds
12:53 PM 50.0 °F - 26.1 °F 39% 30.19 in 10.0 mi WNW 20.7 mph 28.8 mph N/A   Scattered Clouds
1:53 PM 50.0 °F - 21.9 °F 33% 30.16 in 10.0 mi NW 24.2 mph 32.2 mph N/A   Partly Cloudy
2:53 PM 51.1 °F - 17.1 °F 26% 30.13 in 10.0 mi WNW 21.9 mph 28.8 mph N/A   Partly Cloudy
3:53 PM 51.1 °F - 18.0 °F 27% 30.10 in 10.0 mi WNW 16.1 mph 27.6 mph N/A   Clear
4:53 PM 50.0 °F - 10.9 °F 21% 30.09 in 10.0 mi West 16.1 mph 27.6 mph N/A   Clear
5:53 PM 48.0 °F - 14.0 °F 26% 30.09 in 10.0 mi NNW 17.3 mph 27.6 mph N/A   Clear
6:53 PM 43.0 °F 35.4 °F 8.1 °F 24% 30.12 in 10.0 mi NNW 16.1 mph 25.3 mph N/A   Clear
7:53 PM 39.9 °F 32.5 °F 9.0 °F 28% 30.14 in 10.0 mi NW 12.7 mph - N/A   Clear
8:53 PM 37.9 °F 30.9 °F 10.9 °F 33% 30.14 in 10.0 mi NNW 10.4 mph - N/A   Clear
9:53 PM 34.0 °F 29.8 °F 17.1 °F 50% 30.15 in 10.0 mi NNW 4.6 mph - N/A   Clear
10:53 PM 33.1 °F 28.7 °F 17.1 °F 52% 30.15 in 10.0 mi NNW 4.6 mph - N/A   Clear
11:53 PM 30.9 °F 26.2 °F 15.1 °F 52% 30.15 in 10.0 mi NW 4.6 mph - N/A   Clear